Regional Weather Roundup
Issued by NWS

Home | Current Version | Previous Version | Text Only | Print | Product List | Glossary Off
Versions: 1 2 3 4 5 6 7 8 9 10 11 12 13 14 15 16 17 18 19 20 21 22 23 24 25 26 27 28 29 30 31 32 33 34 35 36 37 38 39 40 41 42 43 44 45 46 47 48 49 50

000
ASUS43 KFSD 240210
RWRSD

WEATHER ROUNDUP FOR SOUTH DAKOTA
NATIONAL WEATHER SERVICE SIOUX FALLS SD
900 PM CDT WED APR 23 2014

NOTE: "FAIR" INDICATES FEW OR NO CLOUDS BELOW 12,000 FEET WITH NO
SIGNIFICANT WEATHER AND/OR OBSTRUCTIONS TO VISIBILITY.


SDZ001>005-009-010-012>017-240300-
NORTHWEST AND NORTH CENTRAL SOUTH DAKOTA

CITY           SKY/WX    TMP DP  RH WIND       PRES   REMARKS
BUFFALO          N/A     48  29  47 NW12      29.65R
FAITH            N/A     49  35  58 N9        29.71R
MOBRIDGE       MOCLDY    50  38  63 N12       29.64R
$$

SDZ012>016-024>037-041>051-057-063-072>074-240300-
SOUTHWEST AND SOUTH CENTRAL SOUTH DAKOTA

CITY           SKY/WX    TMP DP  RH WIND       PRES   REMARKS
RAPID CTY ARPT CLOUDY    50  33  52 N16       29.73R
PIERRE         CLOUDY    56  37  49 N21G29    29.63R
CUSTER         MOCLDY    44  21  40 NW5       29.76R
ELLSWORTH AFB  CLOUDY    51  34  51 N9        29.74R
PHILIP         CLOUDY    52  37  56 NW9       29.69R
PINE RIDGE     CLOUDY    51  37  58 NE6       29.74R
SPEARFISH      FAIR      46  28  49 NW9       29.77R
WINNER         FAIR      58  41  53 NW21G31   29.61R
$$

SDZ004>011-016>023-039-040-240300-
NORTHEAST SOUTH DAKOTA

CITY           SKY/WX    TMP DP  RH WIND       PRES   REMARKS
ABERDEEN       CLOUDY    44  40  85 E9        29.66R
WATERTOWN      MOCLDY    46  38  73 SE18G30   29.68R
SISSETON         N/A     41  38  89 SE20G26   29.75R
$$

SDZ017-020-022-023-036>040-048>070-240300-
SOUTHEAST SOUTH DAKOTA

CITY           SKY/WX    TMP DP  RH WIND       PRES   REMARKS
SIOUX FALLS    MOCLDY    50  40  68 SE18G29   29.68R
HURON          PTCLDY    60  42  51 SE14G29   29.57R
CHAMBERLAIN      N/A     60  43  53 N23G36    29.56R
MITCHELL       MOCLDY    59  44  57 SE18      29.57S
YANKTON        CLOUDY    55  43  62 SE24G30   29.61R
$$

ABBREVIATIONS USED IN REMARKS
   TC - TEMPERATURE IN CELSIUS
  WCI - WIND CHILL INDEX
   HX - HEAT INDEX
  VSB - VISIBILITY




USA.gov is the U.S. government's official web portal to all federal, state and local government web resources and services.